When you browse on this site, cookies collect data to enhance your experience and personalize the content and advertising you see.
Visit our Privacy Policy to learn more. By continuing to use the site, you agree to this use of cookies and data.
  • In United Kingdom
  • List of Countries
  • For 7 days
  • Water Temperature
  • Satellite Maps
  • Weather Map
  • Weather Widgets
  • user-avatar
    Login

    Hourly Weather Selfoss

    Today, 13 December, Thursday

    Time Temperature Precipitation Wind Pressure Humidity
    00:00 +3°C° 0.1 mm 10 mps 747 mmHg 84%
    01:00 +3°C° 0.1 mm 11 mps 747 mmHg 84%
    02:00 +3°C° 0.1 mm 11 mps 746 mmHg 83%
    03:00 +3°C° 0.1 mm 11 mps 746 mmHg 83%
    04:00 +3°C° 0.1 mm 12 mps 746 mmHg 83%
    05:00 +3°C° 0.1 mm 12 mps 745 mmHg 82%
    06:00 +4°C° 0.1 mm 12 mps 744 mmHg 83%
    07:00 +4°C° 0.1 mm 12 mps 744 mmHg 83%
    08:00 +4°C° 0.1 mm 12 mps 743 mmHg 83%
    09:00 +4°C° 0.3 mm 12 mps 742 mmHg 84%
    10:00 +4°C° 0.3 mm 12 mps 742 mmHg 86%
    11:00 +5°C° 0 mm 8 mps 742 mmHg 88%
    12:00 +5°C° 0.7 mm 9 mps 741 mmHg 89%
    13:00 +5°C° 0.7 mm 9 mps 740 mmHg 90%
    14:00 +5°C° 0.7 mm 9 mps 739 mmHg 91%
    15:00 +5°C° 0.3 mm 9 mps 739 mmHg 91%
    16:00 +5°C° 0.3 mm 8 mps 738 mmHg 91%
    17:00 +5°C° 0.3 mm 8 mps 738 mmHg 91%
    18:00 +5°C° 1.9 mm 8 mps 737 mmHg 91%
    19:00 +5°C° 1.9 mm 7 mps 736 mmHg 91%
    20:00 +5°C° 1.9 mm 7 mps 736 mmHg 91%
    21:00 +5°C° 0.7 mm 7 mps 736 mmHg 93%
    22:00 +5°C° 0.7 mm 7 mps 737 mmHg 94%
    23:00 +5°C° 0.7 mm 7 mps 738 mmHg 96%

    Tomorrow, 14 December, Friday

    Time Temperature Precipitation Wind Pressure Humidity
    00:00 +4°C° 0.2 mm 7 mps 739 mmHg 93%
    01:00 +3°C° 0.2 mm 7 mps 740 mmHg 91%
    02:00 +3°C° 0.2 mm 7 mps 742 mmHg 88%
    03:00 +3°C° 0.1 mm 7 mps 742 mmHg 85%
    04:00 +2°C° 0.1 mm 6 mps 743 mmHg 83%
    05:00 +2°C° 0.1 mm 5 mps 744 mmHg 80%
    06:00 +2°C° 0 mm 5 mps 744 mmHg 80%
    07:00 +1°C° 0 mm 5 mps 745 mmHg 79%
    08:00 +1°C° 0 mm 6 mps 745 mmHg 79%
    09:00 +1°C° 0 mm 6 mps 745 mmHg 79%
    10:00 0°C° 0 mm 7 mps 744 mmHg 79%
    11:00 0°C° 0 mm 8 mps 744 mmHg 80%
    12:00 +1°C° 0 mm 9 mps 743 mmHg 79%
    13:00 +1°C° 0 mm 10 mps 741 mmHg 78%
    14:00 +2°C° 0 mm 11 mps 740 mmHg 78%
    15:00 +2°C° 0.1 mm 12 mps 739 mmHg 78%
    16:00 +3°C° 0.1 mm 12 mps 737 mmHg 79%
    17:00 +3°C° 0.1 mm 13 mps 736 mmHg 79%
    18:00 +3°C° 0.1 mm 12 mps 735 mmHg 81%
    19:00 +4°C° 0.1 mm 11 mps 735 mmHg 82%
    20:00 +5°C° 0.1 mm 10 mps 734 mmHg 83%
    21:00 +3°C° 0 mm 10 mps 734 mmHg 83%
    22:00 +3°C° 0 mm 10 mps 733 mmHg 83%
    23:00 +3°C° 0 mm 10 mps 733 mmHg 83%

    Day after tomorrow, 15 December, Saturday

    Time Temperature Precipitation Wind Pressure Humidity
    00:00 +3°C° 0.1 mm 10 mps 733 mmHg 82%
    01:00 +2°C° 0.1 mm 10 mps 733 mmHg 82%
    02:00 +2°C° 0.1 mm 10 mps 733 mmHg 81%
    03:00 +2°C° 0.1 mm 10 mps 734 mmHg 80%
    04:00 +2°C° 0.1 mm 10 mps 734 mmHg 79%
    05:00 +2°C° 0.1 mm 10 mps 734 mmHg 78%
    06:00 +2°C° 0.2 mm 10 mps 735 mmHg 78%
    07:00 +2°C° 0.2 mm 10 mps 735 mmHg 78%
    08:00 +2°C° 0.2 mm 10 mps 736 mmHg 78%
    09:00 +2°C° 0.2 mm 9 mps 736 mmHg 78%
    10:00 +1°C° 0.2 mm 9 mps 737 mmHg 78%
    11:00 +1°C° 0.2 mm 9 mps 738 mmHg 78%
    12:00 +1°C° 0.1 mm 8 mps 738 mmHg 78%
    13:00 +1°C° 0.1 mm 8 mps 739 mmHg 78%
    14:00 +2°C° 0.1 mm 7 mps 739 mmHg 77%
    15:00 +2°C° 0.1 mm 7 mps 739 mmHg 78%
    16:00 +2°C° 0.1 mm 7 mps 739 mmHg 79%
    17:00 0°C° 0.1 mm 7 mps 739 mmHg 79%
    18:00 0°C° 0.1 mm 7 mps 739 mmHg 79%
    19:00 0°C° 0.1 mm 7 mps 739 mmHg 79%
    20:00 0°C° 0.1 mm 7 mps 739 mmHg 78%
    21:00 +2°C° 0.4 mm 7 mps 738 mmHg 77%
    22:00 +1°C° 0.4 mm 8 mps 737 mmHg 76%
    23:00 +1°C° 0.4 mm 8 mps 736 mmHg 75%

    16 December, Sunday

    Time Temperature Precipitation Wind Pressure Humidity
    00:00 +1°C° 0.5 mm 8 mps 735 mmHg 75%
    01:00 +2°C° 0.5 mm 8 mps 734 mmHg 75%
    02:00 +2°C° 0.5 mm 8 mps 733 mmHg 75%
    03:00 +2°C° 0.3 mm 8 mps 732 mmHg 75%
    04:00 +2°C° 0.3 mm 8 mps 731 mmHg 76%
    05:00 +4°C° 0.3 mm 8 mps 730 mmHg 76%
    06:00 +4°C° 0.4 mm 8 mps 729 mmHg 77%
    07:00 +4°C° 0.4 mm 8 mps 729 mmHg 78%
    08:00 +3°C° 0.4 mm 9 mps 728 mmHg 78%
    09:00 +3°C° 0.3 mm 9 mps 728 mmHg 77%
    10:00 +5°C° 0.3 mm 10 mps 727 mmHg 77%
    11:00 +5°C° 0.3 mm 10 mps 727 mmHg 76%
    12:00 +4°C° 0.1 mm 11 mps 727 mmHg 75%
    13:00 +4°C° 0.1 mm 12 mps 726 mmHg 74%
    14:00 +4°C° 0.1 mm 13 mps 726 mmHg 73%
    15:00 +4°C° 0.3 mm 12 mps 726 mmHg 78%
    16:00 +4°C° 0.3 mm 11 mps 727 mmHg 83%
    17:00 +3°C° 0.3 mm 10 mps 728 mmHg 87%
    18:00 +3°C° 0.1 mm 10 mps 729 mmHg 86%
    19:00 +3°C° 0.1 mm 9 mps 731 mmHg 84%
    20:00 +2°C° 0.1 mm 8 mps 732 mmHg 83%
    21:00 +2°C° 0 mm 8 mps 733 mmHg 83%
    22:00 +3°C° 0 mm 7 mps 734 mmHg 83%
    23:00 +3°C° 0 mm 7 mps 735 mmHg 84%

    17 December, Monday

    Time Temperature Precipitation Wind Pressure Humidity
    00:00 +2°C° 0.1 mm 7 mps 735 mmHg 84%
    01:00 +2°C° 0.1 mm 6 mps 735 mmHg 85%
    02:00 +2°C° 0.1 mm 6 mps 736 mmHg 86%
    03:00 +2°C° 0.2 mm 6 mps 736 mmHg 86%
    04:00 +2°C° 0.2 mm 6 mps 737 mmHg 86%
    05:00 +2°C° 0.2 mm 6 mps 737 mmHg 85%
    06:00 +2°C° 0.2 mm 6 mps 738 mmHg 86%
    07:00 +2°C° 0.2 mm 6 mps 738 mmHg 86%
    08:00 +2°C° 0.2 mm 6 mps 739 mmHg 87%
    09:00 +2°C° 0.1 mm 6 mps 740 mmHg 86%
    10:00 +2°C° 0.1 mm 7 mps 740 mmHg 85%
    11:00 +2°C° 0.1 mm 7 mps 740 mmHg 85%
    12:00 +2°C° 0.1 mm 7 mps 741 mmHg 84%
    13:00 +1°C° 0.1 mm 8 mps 741 mmHg 83%
    14:00 +1°C° 0.1 mm 8 mps 741 mmHg 82%
    15:00 +1°C° 0 mm 8 mps 741 mmHg 80%
    16:00 +1°C° 0 mm 9 mps 741 mmHg 78%
    17:00 +1°C° 0 mm 9 mps 741 mmHg 77%
    18:00 +1°C° 0 mm 10 mps 740 mmHg 75%
    19:00 +1°C° 0 mm 10 mps 740 mmHg 73%
    20:00 +1°C° 0 mm 10 mps 740 mmHg 72%
    21:00 +2°C° 0 mm 10 mps 739 mmHg 71%
    22:00 +2°C° 0 mm 10 mps 739 mmHg 71%
    23:00 +2°C° 0 mm 10 mps 738 mmHg 71%

    18 December, Tuesday

    Time Temperature Precipitation Wind Pressure Humidity
    00:00 +2°C° 0 mm 11 mps 738 mmHg 69%
    01:00 +2°C° 0 mm 11 mps 737 mmHg 67%
    02:00 +2°C° 0 mm 11 mps 736 mmHg 66%
    03:00 +3°C° 0 mm 10 mps 736 mmHg 67%
    04:00 +3°C° 0 mm 10 mps 736 mmHg 67%
    05:00 +3°C° 0 mm 10 mps 735 mmHg 68%
    06:00 +3°C° 0 mm 9 mps 735 mmHg 69%
    07:00 +3°C° 0 mm 9 mps 735 mmHg 71%
    08:00 +4°C° 0 mm 8 mps 735 mmHg 72%
    09:00 +4°C° 0 mm 8 mps 735 mmHg 73%
    10:00 +4°C° 0 mm 7 mps 735 mmHg 74%
    11:00 +3°C° 0 mm 7 mps 735 mmHg 75%
    12:00 +3°C° 0 mm 6 mps 736 mmHg 75%
    13:00 +3°C° 0 mm 6 mps 736 mmHg 76%
    14:00 +3°C° 0 mm 5 mps 736 mmHg 77%
    15:00 +2°C° 0.1 mm 5 mps 736 mmHg 77%
    16:00 +2°C° 0.1 mm 5 mps 736 mmHg 77%
    17:00 +2°C° 0.1 mm 5 mps 736 mmHg 77%
    18:00 +2°C° 0.1 mm 5 mps 736 mmHg 77%
    19:00 +3°C° 0.1 mm 4 mps 737 mmHg 78%
    20:00 +3°C° 0.1 mm 4 mps 737 mmHg 79%
    21:00 +3°C° 0.1 mm 4 mps 737 mmHg 80%
    22:00 +1°C° 0.1 mm 4 mps 737 mmHg 81%
    23:00 +2°C° 0.1 mm 3 mps 737 mmHg 82%
    Show more